Time,TemperatureF,DewpointF,PressureIn,WindDirection,WindDirectionDegrees,WindSpeedMPH,WindSpeedGustMPH,Humidity,HourlyPrecipIn,Conditions,Clouds,dailyrainin,SoftwareType,DateUTC
2013-04-18 00:00:00,55.2,52.6,29.59,East,82,0.0,9.0,91,0.00,,,0.37,Wunderground v.1.15,2013-04-18 05:00:00,
2013-04-18 00:06:00,55.2,52.6,29.59,East,97,1.0,9.0,91,0.00,,,0.00,Wunderground v.1.15,2013-04-18 05:06:00,
2013-04-18 00:12:00,55.3,52.7,29.59,ESE,107,1.0,9.0,91,0.00,,,0.00,Wunderground v.1.15,2013-04-18 05:12:00,
2013-04-18 00:18:00,55.3,52.7,29.59,ESE,107,1.0,9.0,91,0.00,,,0.00,Wunderground v.1.15,2013-04-18 05:18:00,
2013-04-18 00:24:00,55.3,52.7,29.59,ESE,109,0.0,9.0,91,0.00,,,0.00,Wunderground v.1.15,2013-04-18 05:24:00,
2013-04-18 00:30:00,55.3,52.7,29.59,ESE,114,0.0,9.0,91,0.00,,,0.00,Wunderground v.1.15,2013-04-18 05:30:00,
2013-04-18 00:36:00,55.2,52.6,29.59,ESE,114,1.0,9.0,91,0.00,,,0.00,Wunderground v.1.15,2013-04-18 05:36:00,
2013-04-18 00:42:00,55.2,52.6,29.59,ESE,114,0.0,9.0,91,0.00,,,0.01,Wunderground v.1.15,2013-04-18 05:42:00,
2013-04-18 00:48:00,55.2,52.6,29.58,ESE,119,1.0,9.0,91,0.00,,,0.01,Wunderground v.1.15,2013-04-18 05:48:00,
2013-04-18 00:54:00,55.3,52.7,29.58,ESE,119,0.0,9.0,91,0.00,,,0.01,Wunderground v.1.15,2013-04-18 05:54:00,
2013-04-18 01:00:00,55.5,53.2,29.60,NW,315,4.0,11.0,92,0.00,,,0.01,Wunderground v.1.15,2013-04-18 06:00:00,
2013-04-18 01:06:00,56.1,53.8,29.58,SSE,151,6.0,11.0,92,0.00,,,0.01,Wunderground v.1.15,2013-04-18 06:06:00,
2013-04-18 01:12:00,56.5,54.2,29.59,SSE,150,2.0,3.0,92,0.00,,,0.01,Wunderground v.1.15,2013-04-18 06:12:00,
2013-04-18 01:18:00,56.8,54.5,29.58,North,360,4.0,9.0,92,0.00,,,0.01,Wunderground v.1.15,2013-04-18 06:18:00,
2013-04-18 01:24:00,56.9,54.6,29.58,NNW,333,4.0,5.0,92,0.00,,,0.01,Wunderground v.1.15,2013-04-18 06:24:00,
2013-04-18 01:30:00,56.7,54.4,29.61,WNW,303,4.0,6.0,92,3.22,,,0.09,Wunderground v.1.15,2013-04-18 06:30:00,
2013-04-18 01:36:00,56.6,54.3,29.59,WNW,303,4.0,6.0,92,0.11,,,0.11,Wunderground v.1.15,2013-04-18 06:36:00,
2013-04-18 01:42:00,56.6,54.3,29.59,NW,307,3.0,3.0,92,0.05,,,0.11,Wunderground v.1.15,2013-04-18 06:42:00,
2013-04-18 01:48:00,56.5,54.2,29.58,NW,307,2.0,3.0,92,0.04,,,0.12,Wunderground v.1.15,2013-04-18 06:48:00,
2013-04-18 01:54:00,56.5,54.2,29.58,NW,307,1.0,4.0,92,0.14,,,0.13,Wunderground v.1.15,2013-04-18 06:54:00,
2013-04-18 02:00:00,56.6,54.3,29.57,NNW,338,2.0,5.0,92,0.06,,,0.13,Wunderground v.1.15,2013-04-18 07:00:00,
2013-04-18 02:06:00,56.6,54.3,29.57,North,10,3.0,6.0,92,0.04,,,0.13,Wunderground v.1.15,2013-04-18 07:06:00,
2013-04-18 02:12:00,56.7,54.4,29.56,North,355,2.0,5.0,92,0.00,,,0.14,Wunderground v.1.15,2013-04-18 07:12:00,
2013-04-18 02:18:00,56.7,54.4,29.56,North,355,3.0,5.0,92,0.00,,,0.14,Wunderground v.1.15,2013-04-18 07:18:00,
2013-04-18 02:24:00,56.8,54.5,29.56,NNW,342,2.0,5.0,92,0.00,,,0.14,Wunderground v.1.15,2013-04-18 07:24:00,
2013-04-18 02:30:00,56.8,54.5,29.55,NNE,19,3.0,3.0,92,0.00,,,0.14,Wunderground v.1.15,2013-04-18 07:30:00,
2013-04-18 02:36:00,56.9,54.6,29.53,NNE,21,3.0,6.0,92,0.00,,,0.14,Wunderground v.1.15,2013-04-18 07:36:00,
2013-04-18 02:42:00,56.8,54.5,29.52,NNE,22,3.0,5.0,92,0.00,,,0.14,Wunderground v.1.15,2013-04-18 07:42:00,
2013-04-18 02:48:00,56.7,54.4,29.54,West,271,2.0,5.0,92,0.00,,,0.15,Wunderground v.1.15,2013-04-18 07:48:00,
2013-04-18 02:54:00,56.8,54.5,29.58,WNW,288,3.0,5.0,92,0.73,,,0.34,Wunderground v.1.15,2013-04-18 07:54:00,
2013-04-18 03:00:00,56.8,54.5,29.58,WNW,288,3.0,3.0,92,0.27,,,0.38,Wunderground v.1.15,2013-04-18 08:00:00,
2013-04-18 03:06:00,56.8,54.5,29.56,WNW,291,2.0,5.0,92,0.36,,,0.41,Wunderground v.1.15,2013-04-18 08:06:00,
2013-04-18 03:12:00,56.8,54.5,29.56,WNW,292,2.0,5.0,92,0.39,,,0.45,Wunderground v.1.15,2013-04-18 08:12:00,
2013-04-18 03:18:00,56.8,54.5,29.56,WNW,292,1.0,5.0,92,0.17,,,0.46,Wunderground v.1.15,2013-04-18 08:18:00,
2013-04-18 03:24:00,56.8,54.5,29.57,WNW,292,0.0,5.0,92,0.10,,,0.47,Wunderground v.1.15,2013-04-18 08:24:00,
2013-04-18 03:30:00,56.8,54.5,29.56,WNW,292,0.0,5.0,92,0.05,,,0.47,Wunderground v.1.15,2013-04-18 08:30:00,
2013-04-18 03:36:00,56.8,54.5,29.54,WNW,292,0.0,5.0,92,0.04,,,0.48,Wunderground v.1.15,2013-04-18 08:36:00,
2013-04-18 03:42:00,56.7,54.4,29.55,WNW,291,0.0,5.0,92,0.04,,,0.48,Wunderground v.1.15,2013-04-18 08:42:00,
2013-04-18 03:48:00,56.6,54.3,29.55,WNW,292,0.0,5.0,92,0.04,,,0.48,Wunderground v.1.15,2013-04-18 08:48:00,
2013-04-18 03:54:00,56.7,54.4,29.55,WNW,292,0.0,5.0,92,0.00,,,0.49,Wunderground v.1.15,2013-04-18 08:54:00,
2013-04-18 04:00:00,56.8,54.5,29.54,WNW,292,1.0,2.0,92,0.00,,,0.49,Wunderground v.1.15,2013-04-18 09:00:00,
2013-04-18 04:06:00,56.8,54.5,29.53,WNW,291,1.0,2.0,92,0.00,,,0.49,Wunderground v.1.15,2013-04-18 09:06:00,
2013-04-18 04:12:00,56.8,54.5,29.54,WNW,291,0.0,0.0,92,0.00,,,0.49,Wunderground v.1.15,2013-04-18 09:12:00,
2013-04-18 04:18:00,56.8,54.5,29.52,WNW,291,1.0,2.0,92,0.00,,,0.49,Wunderground v.1.15,2013-04-18 09:18:00,
2013-04-18 04:24:00,56.7,54.4,29.53,WNW,292,2.0,3.0,92,0.00,,,0.49,Wunderground v.1.15,2013-04-18 09:24:00,
2013-04-18 04:30:00,56.7,54.4,29.54,WNW,292,2.0,2.0,92,0.00,,,0.49,Wunderground v.1.15,2013-04-18 09:30:00,
2013-04-18 04:36:00,56.7,54.4,29.55,WNW,291,1.0,2.0,92,0.14,,,0.51,Wunderground v.1.15,2013-04-18 09:36:00,
2013-04-18 04:42:00,56.7,54.4,29.56,WNW,291,1.0,1.0,92,0.16,,,0.52,Wunderground v.1.15,2013-04-18 09:42:00,
2013-04-18 04:48:00,56.7,54.4,29.55,WNW,291,1.0,2.0,92,0.32,,,0.54,Wunderground v.1.15,2013-04-18 09:48:00,
2013-04-18 04:54:00,56.7,54.4,29.55,WNW,291,1.0,1.0,92,0.15,,,0.56,Wunderground v.1.15,2013-04-18 09:54:00,
2013-04-18 05:00:00,56.8,54.5,29.58,WNW,288,1.0,1.0,92,0.34,,,0.59,Wunderground v.1.15,2013-04-18 10:00:00,
2013-04-18 05:06:00,56.8,54.5,29.58,WNW,288,1.0,3.0,92,0.40,,,0.63,Wunderground v.1.15,2013-04-18 10:06:00,
2013-04-18 05:12:00,56.8,54.5,29.58,WNW,289,1.0,3.0,92,0.24,,,0.66,Wunderground v.1.15,2013-04-18 10:12:00,
2013-04-18 05:18:00,56.9,54.6,29.57,WNW,288,0.0,3.0,92,0.28,,,0.68,Wunderground v.1.15,2013-04-18 10:18:00,
2013-04-18 05:24:00,56.8,54.5,29.58,WNW,288,0.0,3.0,92,0.32,,,0.72,Wunderground v.1.15,2013-04-18 10:24:00,
2013-04-18 05:30:00,56.8,54.5,29.59,WNW,289,0.0,3.0,92,0.47,,,0.74,Wunderground v.1.15,2013-04-18 10:30:00,
2013-04-18 05:36:00,56.8,54.5,29.58,WNW,288,1.0,3.0,92,0.50,,,0.78,Wunderground v.1.15,2013-04-18 10:36:00,
2013-04-18 05:42:00,56.9,54.6,29.58,WNW,288,1.0,3.0,92,0.47,,,0.82,Wunderground v.1.15,2013-04-18 10:42:00,
2013-04-18 05:48:00,56.9,54.6,29.56,WNW,289,0.0,3.0,92,0.35,,,0.86,Wunderground v.1.15,2013-04-18 10:48:00,
2013-04-18 05:54:00,56.9,54.6,29.56,WNW,288,0.0,3.0,92,0.25,,,0.88,Wunderground v.1.15,2013-04-18 10:54:00,
2013-04-18 06:00:00,56.9,54.6,29.56,WNW,289,0.0,0.0,92,0.22,,,0.90,Wunderground v.1.15,2013-04-18 11:00:00,
2013-04-18 06:06:00,56.9,54.6,29.53,WNW,289,0.0,2.0,92,0.13,,,0.91,Wunderground v.1.15,2013-04-18 11:06:00,
2013-04-18 06:12:00,57.1,54.8,29.49,WNW,288,1.0,3.0,92,0.11,,,0.92,Wunderground v.1.15,2013-04-18 11:12:00,
2013-04-18 06:18:00,57.2,54.9,29.49,WNW,292,1.0,3.0,92,0.06,,,0.93,Wunderground v.1.15,2013-04-18 11:18:00,
2013-04-18 06:24:00,57.3,55.0,29.51,WNW,291,1.0,2.0,92,0.06,,,0.93,Wunderground v.1.15,2013-04-18 11:24:00,
2013-04-18 06:30:00,57.4,55.1,29.53,WNW,290,1.0,1.0,92,0.04,,,0.93,Wunderground v.1.15,2013-04-18 11:30:00,
2013-04-18 06:36:00,57.4,55.1,29.55,WNW,290,0.0,1.0,92,0.00,,,0.93,Wunderground v.1.15,2013-04-18 11:36:00,
2013-04-18 06:42:00,57.4,55.1,29.56,SW,221,2.0,3.0,92,0.00,,,0.94,Wunderground v.1.15,2013-04-18 11:42:00,
2013-04-18 06:48:00,57.6,55.3,29.55,SSE,163,4.0,5.0,92,0.00,,,0.94,Wunderground v.1.15,2013-04-18 11:48:00,
2013-04-18 06:54:00,57.7,55.7,29.54,SSE,148,4.0,5.0,93,0.06,,,0.95,Wunderground v.1.15,2013-04-18 11:54:00,
2013-04-18 07:00:00,57.7,55.7,29.54,SSE,167,4.0,8.0,93,0.09,,,0.96,Wunderground v.1.15,2013-04-18 12:00:00,
2013-04-18 07:06:00,58.0,56.0,29.55,South,169,6.0,10.0,93,0.17,,,0.98,Wunderground v.1.15,2013-04-18 12:06:00,
2013-04-18 07:12:00,58.1,56.1,29.56,SSE,162,7.0,10.0,93,0.24,,,1.00,Wunderground v.1.15,2013-04-18 12:12:00,
2013-04-18 07:18:00,58.2,56.2,29.56,SSE,161,6.0,10.0,93,0.17,,,1.01,Wunderground v.1.15,2013-04-18 12:18:00,
2013-04-18 07:24:00,58.4,56.4,29.56,SSE,163,5.0,6.0,93,0.11,,,1.02,Wunderground v.1.15,2013-04-18 12:24:00,
2013-04-18 07:30:00,58.4,56.4,29.55,SSE,159,4.0,4.0,93,0.12,,,1.03,Wunderground v.1.15,2013-04-18 12:30:00,
2013-04-18 07:36:00,58.4,56.4,29.52,SSE,155,3.0,5.0,93,0.10,,,1.04,Wunderground v.1.15,2013-04-18 12:36:00,
2013-04-18 07:42:00,58.5,56.5,29.51,SSE,155,1.0,2.0,93,0.05,,,1.04,Wunderground v.1.15,2013-04-18 12:42:00,
2013-04-18 07:48:00,58.5,56.5,29.52,SSE,155,1.0,4.0,93,0.00,,,1.04,Wunderground v.1.15,2013-04-18 12:48:00,
2013-04-18 07:54:00,58.5,56.5,29.52,SSE,160,3.0,4.0,93,0.00,,,1.05,Wunderground v.1.15,2013-04-18 12:54:00,
2013-04-18 08:00:00,58.6,56.6,29.53,SSE,158,4.0,4.0,93,0.00,,,1.05,Wunderground v.1.15,2013-04-18 13:00:00,
2013-04-18 08:06:00,58.6,56.6,29.52,SSE,155,4.0,5.0,93,0.00,,,1.05,Wunderground v.1.15,2013-04-18 13:06:00,
2013-04-18 08:12:00,58.6,56.6,29.53,SSE,155,4.0,7.0,93,0.00,,,1.05,Wunderground v.1.15,2013-04-18 13:12:00,
2013-04-18 08:18:00,58.7,56.7,29.53,SSE,153,5.0,7.0,93,0.00,,,1.05,Wunderground v.1.15,2013-04-18 13:18:00,
2013-04-18 08:24:00,58.7,56.7,29.53,SSE,165,5.0,7.0,93,0.00,,,1.06,Wunderground v.1.15,2013-04-18 13:24:00,
2013-04-18 08:30:00,58.9,56.9,29.53,SSE,161,6.0,6.0,93,0.00,,,1.06,Wunderground v.1.15,2013-04-18 13:30:00,
2013-04-18 08:36:00,59.0,57.0,29.54,SSE,159,5.0,6.0,93,0.00,,,1.06,Wunderground v.1.15,2013-04-18 13:36:00,
2013-04-18 08:42:00,59.0,57.0,29.54,South,178,4.0,9.0,93,0.00,,,1.06,Wunderground v.1.15,2013-04-18 13:42:00,
2013-04-18 08:48:00,59.1,57.1,29.55,SSE,153,4.0,9.0,93,0.13,,,1.08,Wunderground v.1.15,2013-04-18 13:48:00,
2013-04-18 08:54:00,59.2,57.2,29.55,SSE,157,4.0,7.0,93,0.39,,,1.10,Wunderground v.1.15,2013-04-18 13:54:00,
2013-04-18 09:00:00,59.3,57.3,29.54,SSE,163,5.0,7.0,93,0.26,,,1.12,Wunderground v.1.15,2013-04-18 14:00:00,
2013-04-18 09:06:00,59.4,57.4,29.53,SE,145,7.0,10.0,93,0.22,,,1.14,Wunderground v.1.15,2013-04-18 14:06:00,
2013-04-18 09:12:00,59.6,57.6,29.52,SSE,167,8.0,8.0,93,0.18,,,1.16,Wunderground v.1.15,2013-04-18 14:12:00,
2013-04-18 09:18:00,59.7,57.7,29.52,SSE,160,6.0,10.0,93,0.21,,,1.18,Wunderground v.1.15,2013-04-18 14:18:00,
2013-04-18 09:24:00,59.8,57.8,29.52,SSE,157,6.0,7.0,93,0.11,,,1.19,Wunderground v.1.15,2013-04-18 14:24:00,
2013-04-18 09:30:00,60.0,58.0,29.50,SSE,150,6.0,6.0,93,0.08,,,1.20,Wunderground v.1.15,2013-04-18 14:30:00,
2013-04-18 09:36:00,60.2,58.2,29.48,SSE,166,7.0,9.0,93,0.08,,,1.20,Wunderground v.1.15,2013-04-18 14:36:00,
2013-04-18 09:42:00,60.4,58.4,29.47,SSE,157,7.0,7.0,93,0.08,,,1.21,Wunderground v.1.15,2013-04-18 14:42:00,
2013-04-18 09:48:00,60.5,58.5,29.44,SE,146,8.0,11.0,93,0.05,,,1.21,Wunderground v.1.15,2013-04-18 14:48:00,
2013-04-18 09:54:00,60.4,58.4,29.44,SSE,162,8.0,10.0,93,0.00,,,1.21,Wunderground v.1.15,2013-04-18 14:54:00,
2013-04-18 10:00:00,60.5,58.5,29.47,South,171,9.0,9.0,93,0.00,,,1.21,Wunderground v.1.15,2013-04-18 15:00:00,
2013-04-18 10:06:00,60.5,58.5,29.47,SSE,153,7.0,9.0,93,0.00,,,1.21,Wunderground v.1.15,2013-04-18 15:06:00,
2013-04-18 10:12:00,60.5,58.5,29.48,SSE,155,5.0,6.0,93,0.00,,,1.21,Wunderground v.1.15,2013-04-18 15:12:00,
2013-04-18 10:18:00,60.7,58.7,29.47,SSE,167,6.0,9.0,93,0.00,,,1.21,Wunderground v.1.15,2013-04-18 15:18:00,
2013-04-18 10:24:00,60.8,58.8,29.48,South,171,5.0,6.0,93,0.00,,,1.21,Wunderground v.1.15,2013-04-18 15:24:00,
2013-04-18 10:30:00,60.9,58.9,29.48,SSE,159,4.0,4.0,93,0.00,,,1.21,Wunderground v.1.15,2013-04-18 15:30:00,
2013-04-18 10:36:00,61.0,59.0,29.48,SSE,167,5.0,6.0,93,0.00,,,1.21,Wunderground v.1.15,2013-04-18 15:36:00,
2013-04-18 10:42:00,61.2,59.2,29.49,South,172,7.0,7.0,93,0.00,,,1.21,Wunderground v.1.15,2013-04-18 15:42:00,
2013-04-18 10:48:00,61.4,59.4,29.46,SSE,159,6.0,7.0,93,0.00,,,1.21,Wunderground v.1.15,2013-04-18 15:48:00,
2013-04-18 10:54:00,61.6,59.6,29.48,SSE,161,6.0,6.0,93,0.00,,,1.21,Wunderground v.1.15,2013-04-18 15:54:00,
2013-04-18 11:00:00,61.8,59.8,29.47,South,172,6.0,15.0,93,0.00,,,1.21,Wunderground v.1.15,2013-04-18 16:00:00,
2013-04-18 11:06:00,62.0,60.0,29.46,SSE,164,5.0,15.0,93,0.00,,,1.21,Wunderground v.1.15,2013-04-18 16:06:00,
2013-04-18 11:12:00,62.3,60.2,29.45,South,173,4.0,15.0,93,0.00,,,1.21,Wunderground v.1.15,2013-04-18 16:12:00,
2013-04-18 11:18:00,62.5,60.4,29.46,SSE,149,5.0,15.0,93,0.00,,,1.21,Wunderground v.1.15,2013-04-18 16:18:00,
2013-04-18 11:24:00,62.3,60.2,29.48,WSW,238,5.0,15.0,93,0.00,,,1.22,Wunderground v.1.15,2013-04-18 16:24:00,
2013-04-18 11:30:00,58.6,56.0,29.50,SW,230,7.0,7.0,91,0.00,,,1.22,Wunderground v.1.15,2013-04-18 16:30:00,
2013-04-18 11:36:00,54.8,52.2,29.52,SW,236,8.0,15.0,91,0.00,,,1.22,Wunderground v.1.15,2013-04-18 16:36:00,
2013-04-18 11:42:00,51.9,49.4,29.54,WSW,248,9.0,15.0,91,0.00,,,1.22,Wunderground v.1.15,2013-04-18 16:42:00,
2013-04-18 11:48:00,49.9,47.4,29.53,WSW,253,9.0,16.0,91,0.00,,,1.22,Wunderground v.1.15,2013-04-18 16:48:00,
2013-04-18 11:54:00,48.9,46.7,29.55,WSW,242,9.0,15.0,92,0.00,,,1.22,Wunderground v.1.15,2013-04-18 16:54:00,
2013-04-18 12:00:00,48.3,46.1,29.55,West,269,7.0,13.0,92,0.00,,,1.22,Wunderground v.1.15,2013-04-18 17:00:00,
2013-04-18 12:06:00,47.8,45.6,29.56,SW,223,8.0,13.0,92,0.00,,,1.22,Wunderground v.1.15,2013-04-18 17:06:00,
2013-04-18 12:12:00,47.5,45.3,29.57,WSW,238,9.0,10.0,92,0.00,,,1.22,Wunderground v.1.15,2013-04-18 17:12:00,
2013-04-18 12:18:00,47.2,45.0,29.56,SW,225,7.0,10.0,92,0.00,,,1.22,Wunderground v.1.15,2013-04-18 17:18:00,
2013-04-18 12:24:00,46.8,44.6,29.57,WSW,240,8.0,8.0,92,0.00,,,1.22,Wunderground v.1.15,2013-04-18 17:24:00,
2013-04-18 12:30:00,46.2,44.0,29.58,SW,215,9.0,15.0,92,0.00,,,1.22,Wunderground v.1.15,2013-04-18 17:30:00,
2013-04-18 12:36:00,45.8,43.6,29.58,SW,229,10.0,16.0,92,0.00,,,1.22,Wunderground v.1.15,2013-04-18 17:36:00,
2013-04-18 12:42:00,45.5,43.3,29.59,WSW,240,9.0,12.0,92,0.00,,,1.22,Wunderground v.1.15,2013-04-18 17:42:00,
2013-04-18 12:48:00,45.2,43.0,29.59,SW,232,9.0,12.0,92,0.00,,,1.22,Wunderground v.1.15,2013-04-18 17:48:00,
2013-04-18 12:54:00,44.8,42.6,29.60,WSW,248,8.0,8.0,92,0.00,,,1.22,Wunderground v.1.15,2013-04-18 17:54:00,
2013-04-18 13:00:00,44.3,42.1,29.60,West,264,10.0,10.0,92,0.00,,,1.22,Wunderground v.1.15,2013-04-18 18:00:00,
2013-04-18 13:06:00,44.0,41.8,29.61,WSW,245,8.0,14.0,92,0.00,,,1.22,Wunderground v.1.15,2013-04-18 18:06:00,
2013-04-18 13:12:00,43.7,41.5,29.61,SW,227,8.0,10.0,92,0.00,,,1.22,Wunderground v.1.15,2013-04-18 18:12:00,
2013-04-18 13:18:00,43.6,41.4,29.61,WSW,247,8.0,14.0,92,0.00,,,1.22,Wunderground v.1.15,2013-04-18 18:18:00,
2013-04-18 13:24:00,43.5,41.3,29.59,WSW,254,7.0,14.0,92,0.00,,,1.22,Wunderground v.1.15,2013-04-18 18:24:00,
2013-04-18 13:30:00,43.4,41.2,29.62,SSW,206,6.0,14.0,92,0.00,,,1.22,Wunderground v.1.15,2013-04-18 18:30:00,
2013-04-18 13:36:00,43.2,41.0,29.61,SW,227,7.0,14.0,92,0.00,,,1.22,Wunderground v.1.15,2013-04-18 18:36:00,
2013-04-18 13:42:00,43.0,40.8,29.62,SW,236,7.0,14.0,92,0.00,,,1.22,Wunderground v.1.15,2013-04-18 18:42:00,
2013-04-18 13:48:00,42.9,40.7,29.63,West,263,6.0,14.0,92,0.00,,,1.22,Wunderground v.1.15,2013-04-18 18:48:00,
2013-04-18 13:54:00,42.6,40.4,29.64,SW,234,7.0,14.0,92,0.00,,,1.22,Wunderground v.1.15,2013-04-18 18:54:00,
2013-04-18 14:00:00,42.3,40.1,29.63,WSW,248,8.0,8.0,92,0.00,,,1.22,Wunderground v.1.15,2013-04-18 19:00:00,
2013-04-18 14:06:00,42.1,39.9,29.63,WSW,252,8.0,14.0,92,0.00,,,1.22,Wunderground v.1.15,2013-04-18 19:06:00,
2013-04-18 14:12:00,42.0,39.8,29.63,WSW,248,7.0,14.0,92,0.00,,,1.22,Wunderground v.1.15,2013-04-18 19:12:00,
2013-04-18 14:18:00,41.9,39.7,29.63,West,261,8.0,14.0,92,0.00,,,1.22,Wunderground v.1.15,2013-04-18 19:18:00,
2013-04-18 14:24:00,41.9,39.7,29.64,WSW,244,8.0,14.0,92,0.00,,,1.22,Wunderground v.1.15,2013-04-18 19:24:00,
2013-04-18 14:30:00,42.0,39.8,29.65,WSW,244,7.0,7.0,92,0.00,,,1.22,Wunderground v.1.15,2013-04-18 19:30:00,
2013-04-18 14:36:00,41.9,39.7,29.64,WSW,244,7.0,14.0,92,0.00,,,1.22,Wunderground v.1.15,2013-04-18 19:36:00,
2013-04-18 14:42:00,41.8,39.6,29.65,SW,236,9.0,14.0,92,0.00,,,1.22,Wunderground v.1.15,2013-04-18 19:42:00,
2013-04-18 14:48:00,42.0,39.8,29.64,West,269,8.0,14.0,92,0.00,,,1.22,Wunderground v.1.15,2013-04-18 19:48:00,
2013-04-18 14:54:00,42.0,39.8,29.64,WSW,240,7.0,14.0,92,0.00,,,1.22,Wunderground v.1.15,2013-04-18 19:54:00,
2013-04-18 15:00:00,42.2,40.0,29.65,SW,225,7.0,7.0,92,0.00,,,1.22,Wunderground v.1.15,2013-04-18 20:00:00,
2013-04-18 15:06:00,42.2,40.0,29.65,WSW,256,6.0,7.0,92,0.00,,,1.22,Wunderground v.1.15,2013-04-18 20:06:00,
2013-04-18 15:12:00,42.2,40.0,29.66,West,266,6.0,7.0,92,0.00,,,1.22,Wunderground v.1.15,2013-04-18 20:12:00,
2013-04-18 15:18:00,42.1,39.9,29.65,West,259,7.0,10.0,92,0.00,,,1.22,Wunderground v.1.15,2013-04-18 20:18:00,
2013-04-18 15:24:00,42.1,39.9,29.65,WSW,248,7.0,7.0,92,0.00,,,1.22,Wunderground v.1.15,2013-04-18 20:24:00,
2013-04-18 15:30:00,42.3,40.1,29.65,WSW,248,6.0,9.0,92,0.00,,,1.22,Wunderground v.1.15,2013-04-18 20:30:00,
2013-04-18 15:36:00,42.2,40.0,29.65,SW,227,8.0,11.0,92,0.00,,,1.22,Wunderground v.1.15,2013-04-18 20:36:00,
2013-04-18 15:42:00,42.3,40.1,29.66,SW,234,8.0,8.0,92,0.00,,,1.22,Wunderground v.1.15,2013-04-18 20:42:00,
2013-04-18 15:48:00,42.4,40.2,29.65,West,263,7.0,13.0,92,0.00,,,1.22,Wunderground v.1.15,2013-04-18 20:48:00,
2013-04-18 15:54:00,42.6,40.4,29.65,WNW,290,6.0,7.0,92,0.00,,,1.22,Wunderground v.1.15,2013-04-18 20:54:00,
2013-04-18 16:00:00,43.2,41.0,29.65,WSW,257,6.0,6.0,92,0.00,,,1.22,Wunderground v.1.15,2013-04-18 21:00:00,
2013-04-18 16:06:00,43.4,41.2,29.66,WSW,257,7.0,13.0,92,0.00,,,1.22,Wunderground v.1.15,2013-04-18 21:06:00,
2013-04-18 16:12:00,43.4,40.9,29.66,WSW,252,7.0,13.0,91,0.00,,,1.22,Wunderground v.1.15,2013-04-18 21:12:00,
2013-04-18 16:18:00,43.3,40.8,29.67,WSW,258,6.0,13.0,91,0.00,,,1.22,Wunderground v.1.15,2013-04-18 21:18:00,
2013-04-18 16:24:00,43.2,40.8,29.67,WNW,284,7.0,14.0,91,0.00,,,1.22,Wunderground v.1.15,2013-04-18 21:24:00,
2013-04-18 16:30:00,43.1,40.7,29.67,West,260,7.0,7.0,91,0.00,,,1.22,Wunderground v.1.15,2013-04-18 21:30:00,
2013-04-18 16:36:00,43.1,40.7,29.67,WSW,249,6.0,13.0,91,0.00,,,1.22,Wunderground v.1.15,2013-04-18 21:36:00,
2013-04-18 16:42:00,43.1,40.7,29.67,WSW,256,6.0,13.0,91,0.00,,,1.22,Wunderground v.1.15,2013-04-18 21:42:00,
2013-04-18 16:48:00,43.0,40.6,29.67,West,270,7.0,13.0,91,0.00,,,1.22,Wunderground v.1.15,2013-04-18 21:48:00,
2013-04-18 16:54:00,42.9,40.5,29.68,West,259,7.0,13.0,91,0.00,,,1.22,Wunderground v.1.15,2013-04-18 21:54:00,
2013-04-18 17:00:00,42.8,40.4,29.68,SW,234,6.0,13.0,91,0.00,,,1.22,Wunderground v.1.15,2013-04-18 22:00:00,
2013-04-18 17:06:00,42.7,40.3,29.68,West,259,6.0,13.0,91,0.00,,,1.22,Wunderground v.1.15,2013-04-18 22:06:00,
2013-04-18 17:12:00,42.6,40.2,29.69,WSW,242,7.0,13.0,91,0.00,,,1.22,Wunderground v.1.15,2013-04-18 22:12:00,
2013-04-18 17:18:00,42.6,40.2,29.70,West,281,7.0,13.0,91,0.00,,,1.22,Wunderground v.1.15,2013-04-18 22:18:00,
2013-04-18 17:24:00,42.4,39.7,29.70,WNW,290,7.0,13.0,90,0.00,,,1.22,Wunderground v.1.15,2013-04-18 22:24:00,
2013-04-18 17:30:00,42.2,39.5,29.71,West,276,8.0,14.0,90,0.00,,,1.22,Wunderground v.1.15,2013-04-18 22:30:00,
2013-04-18 17:36:00,42.1,39.4,29.71,WSW,246,9.0,14.0,90,0.00,,,1.22,Wunderground v.1.15,2013-04-18 22:36:00,
2013-04-18 17:42:00,42.0,39.3,29.71,SW,234,7.0,13.0,90,0.00,,,1.22,Wunderground v.1.15,2013-04-18 22:42:00,
2013-04-18 17:48:00,42.0,39.3,29.71,WSW,246,6.0,13.0,90,0.00,,,1.22,Wunderground v.1.15,2013-04-18 22:48:00,
2013-04-18 17:54:00,42.0,39.3,29.71,WSW,252,6.0,13.0,90,0.00,,,1.22,Wunderground v.1.15,2013-04-18 22:54:00,
2013-04-18 18:00:00,41.9,39.2,29.72,WSW,246,6.0,6.0,90,0.00,,,1.22,Wunderground v.1.15,2013-04-18 23:00:00,
2013-04-18 18:06:00,41.7,39.0,29.72,WSW,238,6.0,8.0,90,0.00,,,1.22,Wunderground v.1.15,2013-04-18 23:06:00,
2013-04-18 18:12:00,41.6,38.9,29.72,WSW,240,7.0,14.0,90,0.00,,,1.22,Wunderground v.1.15,2013-04-18 23:12:00,
2013-04-18 18:18:00,41.3,38.3,29.73,West,264,7.0,14.0,89,0.00,,,1.22,Wunderground v.1.15,2013-04-18 23:18:00,
2013-04-18 18:24:00,41.0,38.0,29.73,WNW,295,7.0,14.0,89,0.00,,,1.22,Wunderground v.1.15,2013-04-18 23:24:00,
2013-04-18 18:30:00,40.7,38.0,29.73,West,268,7.0,12.0,90,0.00,,,1.22,Wunderground v.1.15,2013-04-18 23:30:00,
2013-04-18 18:36:00,40.7,38.0,29.73,SW,225,6.0,12.0,90,0.00,,,1.22,Wunderground v.1.15,2013-04-18 23:36:00,
2013-04-18 18:42:00,40.6,37.6,29.74,WSW,250,7.0,7.0,89,0.00,,,1.22,Wunderground v.1.15,2013-04-18 23:42:00,
2013-04-18 18:48:00,40.7,37.7,29.74,WSW,254,8.0,10.0,89,0.00,,,1.22,Wunderground v.1.15,2013-04-18 23:48:00,
2013-04-18 18:54:00,40.6,37.6,29.74,WSW,254,8.0,11.0,89,0.00,,,1.22,Wunderground v.1.15,2013-04-18 23:54:00,
2013-04-18 19:00:00,40.5,37.5,29.74,West,263,8.0,8.0,89,0.00,,,1.22,Wunderground v.1.15,2013-04-19 00:00:00,
2013-04-18 19:06:00,40.4,37.4,29.75,West,269,6.0,13.0,89,0.00,,,1.22,Wunderground v.1.15,2013-04-19 00:06:00,
2013-04-18 19:12:00,40.3,37.3,29.75,West,264,7.0,13.0,89,0.00,,,1.22,Wunderground v.1.15,2013-04-19 00:12:00,
2013-04-18 19:18:00,40.1,37.1,29.75,West,269,8.0,13.0,89,0.00,,,1.22,Wunderground v.1.15,2013-04-19 00:18:00,
2013-04-18 19:24:00,39.9,36.9,29.76,WSW,253,8.0,13.0,89,0.00,,,1.22,Wunderground v.1.15,2013-04-19 00:24:00,
2013-04-18 19:30:00,39.8,36.8,29.76,WNW,290,6.0,13.0,89,0.00,,,1.22,Wunderground v.1.15,2013-04-19 00:30:00,
2013-04-18 19:36:00,39.7,36.7,29.77,WSW,241,6.0,13.0,89,0.00,,,1.22,Wunderground v.1.15,2013-04-19 00:36:00,
2013-04-18 19:42:00,39.6,36.6,29.77,NW,311,7.0,10.0,89,0.00,,,1.22,Wunderground v.1.15,2013-04-19 00:42:00,
2013-04-18 19:48:00,39.3,36.0,29.78,WSW,257,8.0,13.0,88,0.00,,,1.22,Wunderground v.1.15,2013-04-19 00:48:00,
2013-04-18 19:54:00,39.1,36.1,29.78,WNW,283,7.0,13.0,89,0.00,,,1.22,Wunderground v.1.15,2013-04-19 00:54:00,
2013-04-18 20:00:00,39.0,36.0,29.78,West,270,6.0,6.0,89,0.00,,,1.22,Wunderground v.1.15,2013-04-19 01:00:00,
2013-04-18 20:06:00,38.9,35.9,29.78,WSW,247,5.0,13.0,89,0.00,,,1.22,Wunderground v.1.15,2013-04-19 01:06:00,
2013-04-18 20:12:00,38.8,35.8,29.78,WSW,250,5.0,13.0,89,0.00,,,1.22,Wunderground v.1.15,2013-04-19 01:12:00,
2013-04-18 20:18:00,38.7,35.7,29.78,West,265,5.0,13.0,89,0.00,,,1.22,Wunderground v.1.15,2013-04-19 01:18:00,
2013-04-18 20:24:00,38.6,35.6,29.78,WNW,293,6.0,14.0,89,0.00,,,1.22,Wunderground v.1.15,2013-04-19 01:24:00,
2013-04-18 20:30:00,38.6,35.6,29.78,NW,319,7.0,7.0,89,0.00,,,1.22,Wunderground v.1.15,2013-04-19 01:30:00,
2013-04-18 20:36:00,38.6,35.6,29.78,West,265,5.0,13.0,89,0.00,,,1.22,Wunderground v.1.15,2013-04-19 01:36:00,
2013-04-18 20:42:00,38.6,35.6,29.79,West,281,5.0,13.0,89,0.00,,,1.22,Wunderground v.1.15,2013-04-19 01:42:00,
2013-04-18 20:48:00,38.6,35.6,29.79,West,277,5.0,13.0,89,0.00,,,1.22,Wunderground v.1.15,2013-04-19 01:48:00,
2013-04-18 20:54:00,38.6,35.6,29.79,WNW,284,5.0,13.0,89,0.00,,,1.22,Wunderground v.1.15,2013-04-19 01:54:00,
2013-04-18 21:00:00,38.6,35.6,29.80,WNW,302,5.0,5.0,89,0.00,,,1.22,Wunderground v.1.15,2013-04-19 02:00:00,
2013-04-18 21:06:00,38.6,35.6,29.80,WSW,250,5.0,10.0,89,0.00,,,1.22,Wunderground v.1.15,2013-04-19 02:06:00,
2013-04-18 21:12:00,38.5,35.5,29.80,WSW,258,7.0,12.0,89,0.00,,,1.22,Wunderground v.1.15,2013-04-19 02:12:00,
2013-04-18 21:18:00,38.5,35.3,29.80,WNW,296,7.0,12.0,88,0.00,,,1.22,Wunderground v.1.15,2013-04-19 02:18:00,
2013-04-18 21:24:00,38.4,35.2,29.80,West,263,8.0,10.0,88,0.00,,,1.22,Wunderground v.1.15,2013-04-19 02:24:00,
2013-04-18 21:30:00,38.3,35.1,29.80,NNW,347,8.0,20.0,88,0.00,,,1.22,Wunderground v.1.15,2013-04-19 02:30:00,
2013-04-18 21:36:00,38.2,35.0,29.81,NNW,331,9.0,20.0,88,0.00,,,1.22,Wunderground v.1.15,2013-04-19 02:36:00,
2013-04-18 21:42:00,38.1,34.9,29.81,WSW,254,10.0,11.0,88,0.00,,,1.22,Wunderground v.1.15,2013-04-19 02:42:00,
2013-04-18 21:48:00,38.1,34.6,29.81,WSW,253,8.0,11.0,87,0.00,,,1.22,Wunderground v.1.15,2013-04-19 02:48:00,
2013-04-18 21:54:00,38.1,34.6,29.81,WNW,302,7.0,10.0,87,0.00,,,1.22,Wunderground v.1.15,2013-04-19 02:54:00,
2013-04-18 22:00:00,38.0,34.5,29.81,NW,304,6.0,12.0,87,0.00,,,1.22,Wunderground v.1.15,2013-04-19 03:00:00,
2013-04-18 22:06:00,38.0,34.5,29.81,West,269,6.0,12.0,87,0.00,,,1.22,Wunderground v.1.15,2013-04-19 03:06:00,
2013-04-18 22:12:00,38.1,34.6,29.81,WNW,290,7.0,9.0,87,0.00,,,1.22,Wunderground v.1.15,2013-04-19 03:12:00,
2013-04-18 22:18:00,38.0,34.5,29.81,West,269,6.0,12.0,87,0.00,,,1.22,Wunderground v.1.15,2013-04-19 03:18:00,
2013-04-18 22:24:00,38.1,34.6,29.81,West,259,6.0,12.0,87,0.00,,,1.22,Wunderground v.1.15,2013-04-19 03:24:00,
2013-04-18 22:30:00,38.0,34.5,29.81,West,274,6.0,12.0,87,0.00,,,1.22,Wunderground v.1.15,2013-04-19 03:30:00,
2013-04-18 22:36:00,38.1,34.6,29.81,WSW,252,7.0,12.0,87,0.00,,,1.22,Wunderground v.1.15,2013-04-19 03:36:00,
2013-04-18 22:42:00,38.0,34.5,29.80,WNW,297,6.0,12.0,87,0.00,,,1.22,Wunderground v.1.15,2013-04-19 03:42:00,
2013-04-18 22:48:00,38.0,34.5,29.80,West,268,5.0,12.0,87,0.00,,,1.22,Wunderground v.1.15,2013-04-19 03:48:00,
2013-04-18 22:54:00,38.0,34.5,29.80,WSW,250,6.0,12.0,87,0.00,,,1.22,Wunderground v.1.15,2013-04-19 03:54:00,
2013-04-18 23:00:00,37.9,34.1,29.80,WSW,253,6.0,6.0,86,0.00,,,1.22,Wunderground v.1.15,2013-04-19 04:00:00,
2013-04-18 23:02:00,37.9,34.1,29.80,WNW,288,5.0,7.0,86,0.00,,,1.22,Wunderground v.1.15,2013-04-19 04:02:00,
2013-04-18 23:04:00,37.9,34.1,29.80,West,280,5.0,12.0,86,0.00,,,1.22,Wunderground v.1.15,2013-04-19 04:04:00,
2013-04-18 23:10:00,37.9,34.1,29.79,West,276,6.0,6.0,86,0.00,,,1.22,Wunderground v.1.15,2013-04-19 04:10:00,
2013-04-18 23:12:00,37.9,34.1,29.79,West,276,6.0,12.0,86,0.00,,,1.22,Wunderground v.1.15,2013-04-19 04:12:00,
2013-04-18 23:14:00,37.9,34.1,29.79,WNW,283,5.0,12.0,86,0.00,,,1.22,Wunderground v.1.15,2013-04-19 04:14:00,
2013-04-18 23:20:00,37.8,34.0,29.79,WNW,298,4.0,12.0,86,0.00,,,1.22,Wunderground v.1.15,2013-04-19 04:20:00,
2013-04-18 23:26:00,37.8,34.0,29.79,West,267,5.0,12.0,86,0.00,,,1.22,Wunderground v.1.15,2013-04-19 04:26:00,
2013-04-18 23:32:00,37.8,34.0,29.79,West,273,4.0,12.0,86,0.00,,,1.22,Wunderground v.1.15,2013-04-19 04:32:00,
2013-04-18 23:38:00,37.8,34.0,29.78,NW,309,4.0,12.0,86,0.00,,,1.22,Wunderground v.1.15,2013-04-19 04:38:00,
2013-04-18 23:44:00,37.7,33.9,29.78,WSW,252,4.0,12.0,86,0.00,,,1.22,Wunderground v.1.15,2013-04-19 04:44:00,
2013-04-18 23:50:00,37.7,33.9,29.79,West,259,4.0,4.0,86,0.00,,,1.22,Wunderground v.1.15,2013-04-19 04:50:00,
2013-04-18 23:56:00,37.7,33.9,29.78,WSW,249,4.0,15.0,86,0.00,,,1.22,Wunderground v.1.15,2013-04-19 04:56:00,